Temperature
3 3 3 3 3 3 3 2 2 3 3 4 4 3 3 4 4 3 3 2 2 1 -0 -0 -0 0 1 2 2 2 2 4 4 4 4 3 2 2 1 -0 -1 -2 -1 -1
1 2 2 2 3 3 3 3 2 3 3 4 4 3 3 4 4 3 3 3 2 1 -0 -1 -1 -1 -0 0 0 1 2 2 3 2 2 1 0 -0 -1 -2 -3 -3 -2 -2
-1 0 1 2 3 4 3 2 2 1 2 3 2 2 3 3 3 3 3 3 3 2 1 0 0 -0 -0 -1 -1 -1 -0 0 1 -0 -1 -1 -2 -2 -3 -4 -4 -4 -3 -3
-1 -1 -1 1 2 2 2 2 2 2 2 2 2 3 3 3 3 3 3 3 3 2 2 1 0 0 -0 -1 -2 -2 -2 -2 -2 -3 -3 -3 -4 -4 -4 -5 -5 -5 -5 -4
-1 -2 -2 1 2 2 1 1 2 2 2 2 3 2 2 2 3 2 2 2 3 2 1 1 -0 -1 -1 -2 -3 -4 -4 -4 -4 -4 -5 -5 -5 -5 -5 -5 -6 -6 -6 -5
-3 -2 -2 1 2 2 1 0 2 2 1 2 1 -0 1 1 1 1 1 2 2 2 1 -0 -1 -1 -2 -3 -4 -5 -5 -5 -5 -5 -5 -6 -6 -6 -6 -6 -6 -7 -7 -6
-3 -4 -2 -0 1 1 -1 0 3 2 1 0 -1 -1 -1 -1 -1 -0 0 1 1 1 0 -1 -2 -3 -3 -4 -5 -6 -6 -6 -6 -6 -7 -7 -7 -7 -7 -7 -7 -7 -8 -8
-4 -5 -3 0 1 -0 1 2 2 0 -1 -2 -2 -2 -2 -2 -2 -1 -1 -0 0 -0 -1 -2 -3 -4 -4 -5 -6 -7 -7 -7 -7 -7 -8 -8 -8 -8 -8 -8 -8 -8 -8 -8
-3 -1 1 3 2 2 2 1 -1 -2 -2 -3 -3 -2 -2 -2 -2 -2 -1 -1 -1 -1 -2 -3 -4 -5 -5 -7 -7 -7 -7 -7 -8 -8 -9 -9 -9 -9 -9 -9 -9 -9 -9 -9
-3 -1 1 2 2 1 0 -1 -2 -3 -3 -3 -2 -2 -2 -2 -2 -2 -2 -1 -2 -3 -4 -5 -6 -6 -7 -8 -8 -8 -8 -9 -9 -9 -9 -9 -9 -9 -9 -9 -10 -10 -10 -9
-3 -1 0 1 1 -0 -2 -3 -4 -4 -3 -3 -2 -2 -2 -2 -2 -2 -2 -3 -4 -5 -6 -7 -7 -8 -8 -8 -8 -9 -10 -10 -10 -10 -10 -9 -9 -9 -9 -10 -11 -11 -11 -10
-2 1 -0 0 -0 -2 -4 -4 -4 -4 -3 -3 -3 -3 -3 -3 -4 -4 -5 -6 -6 -7 -7 -8 -9 -9 -9 -9 -9 -10 -10 -10 -10 -10 -10 -10 -10 -10 -10 -10 -11 -11 -11 -11
1 1 -0 -0 -1 -3 -4 -4 -4 -3 -3 -4 -4 -4 -5 -5 -6 -6 -7 -7 -8 -8 -9 -10 -10 -10 -10 -10 -10 -10 -10 -10 -10 -10 -10 -10 -10 -10 -10 -10 -11 -11 -11 -11
1 -0 -1 -1 -3 -4 -5 -5 -5 -5 -5 -6 -6 -6 -6 -7 -7 -8 -8 -9 -10 -10 -10 -11 -11 -10 -10 -11 -11 -11 -11 -11 -11 -11 -11 -11 -12 -12 -12 -11 -11 -11 -11 -11
1 -0 -1 -3 -4 -5 -6 -6 -6 -7 -7 -7 -7 -7 -8 -8 -9 -9 -10 -10 -10 -11 -11 -11 -11 -11 -11 -11 -12 -12 -12 -12 -12 -12 -12 -12 -13 -13 -13 -13 -13 -12 -12 -12
1 0 -1 -3 -5 -6 -6 -7 -7 -8 -8 -8 -8 -9 -9 -9 -9 -10 -10 -11 -11 -11 -11 -11 -12 -12 -12 -12 -12 -12 -12 -13 -13 -13 -13 -13 -13 -13 -14 -14 -14 -14 -14 -14
-1 -1 -3 -5 -6 -7 -7 -8 -8 -8 -8 -9 -9 -9 -9 -10 -10 -10 -11 -11 -11 -12 -11 -11 -11 -11 -12 -12 -12 -12 -13 -13 -14 -14 -14 -14 -14 -14 -14 -15 -15 -14 -14 -14
-1 -2 -4 -6 -7 -7 -8 -8 -8 -9 -9 -9 -9 -9 -9 -10 -10 -11 -11 -12 -12 -12 -12 -12 -12 -13 -13 -13 -13 -13 -14 -14 -14 -14 -14 -14 -15 -15 -15 -15 -15 -15 -15 -14
-1 -3 -5 -6 -7 -8 -8 -8 -9 -9 -9 -9 -10 -10 -10 -11 -11 -11 -12 -12 -12 -12 -12 -13 -13 -13 -13 -13 -14 -14 -14 -14 -15 -15 -15 -15 -15 -15 -15 -15 -15 -15 -15 -15
-2 -4 -6 -7 -8 -8 -8 -8 -9 -9 -9 -10 -10 -10 -10 -11 -11 -12 -12 -12 -13 -13 -13 -14 -14 -14 -14 -14 -15 -14 -15 -15 -15 -15 -15 -15 -15 -15 -15 -15 -16 -16 -16 -16
-3 -5 -6 -7 -8 -8 -8 -9 -9 -9 -10 -10 -10 -10 -11 -11 -12 -12 -12 -12 -13 -14 -14 -14 -14 -14 -15 -15 -15 -15 -15 -15 -15 -15 -15 -16 -16 -16 -16 -16 -16 -17 -17 -17
-4 -6 -7 -8 -8 -8 -9 -9 -10 -10 -11 -11 -11 -11 -11 -12 -12 -12 -13 -13 -14 -15 -14 -14 -15 -15 -15 -15 -15 -15 -15 -15 -16 -16 -16 -16 -16 -16 -17 -17 -17 -18 -18 -18
-5 -7 -8 -8 -8 -9 -9 -10 -10 -11 -11 -11 -11 -12 -12 -12 -13 -13 -13 -14 -15 -15 -15 -15 -15 -15 -15 -15 -15 -15 -15 -15 -15 -15 -16 -16 -16 -16 -17 -17 -17 -18 -17 -17
-6 -7 -8 -8 -9 -9 -10 -10 -11 -11 -11 -11 -12 -12 -13 -13 -13 -14 -14 -14 -15 -15 -15 -15 -15 -15 -15 -15 -15 -15 -15 -15 -15 -15 -16 -16 -16 -16 -16 -17 -17 -17 -17 -16
-7 -8 -8 -8 -9 -9 -10 -11 -11 -12 -12 -12 -12 -13 -13 -14 -14 -14 -15 -15 -15 -15 -15 -15 -15 -15 -15 -15 -15 -15 -15 -15 -15 -15 -15 -15 -16 -16 -16 -16 -16 -16 -16 -16
-7 -8 -8 -9 -9 -10 -11 -11 -11 -12 -12 -13 -13 -13 -14 -14 -14 -14 -15 -15 -15 -15 -16 -15 -15 -15 -15 -15 -15 -15 -15 -15 -15 -15 -15 -15 -15 -15 -15 -15 -15 -15 -15 -15
-8 -8 -9 -9 -10 -10 -11 -11 -12 -12 -13 -13 -13 -14 -14 -14 -14 -15 -15 -15 -15 -16 -16 -16 -15 -15 -15 -15 -15 -15 -15 -15 -15 -15 -15 -15 -15 -15 -15 -15 -15 -15 -15 -15
Wind_Speed
8 10 8 8 14 13 11 11 10 13 18 19 13 12 11 12 15 16 14 12 12 12 12 12 11 9 8 7 6 7 6 5 3 2 2 2 2 3 4 5 5 5 5 4
6 6 6 9 14 11 8 8 11 16 17 13 12 9 10 13 16 19 16 11 8 7 7 8 8 8 7 7 6 3 2 2 1 1 2 2 3 4 5 5 5 5 6 8
6 8 7 7 5 4 8 12 10 12 15 17 14 11 12 14 18 21 18 13 9 8 6 4 1 2 4 5 4 4 3 4 5 4 4 4 4 5 6 5 5 6 7 7
6 8 5 8 6 6 9 13 11 16 15 12 11 13 16 15 18 19 17 15 12 10 9 6 3 2 1 2 3 5 6 6 6 6 6 5 4 5 5 4 5 5 6 7
2 5 9 11 8 2 8 21 14 14 13 11 14 19 23 13 13 15 17 16 13 8 5 3 1 2 3 4 5 6 7 6 6 6 6 5 4 5 5 5 5 5 5 6
2 2 6 11 9 5 7 13 8 7 15 23 27 27 25 18 16 18 18 14 9 5 6 5 3 4 5 5 5 6 7 7 6 6 5 4 4 4 4 5 5 4 5 5
5 7 10 10 6 8 6 10 12 19 26 30 30 25 27 27 24 21 18 10 2 8 7 5 4 5 6 5 5 6 6 6 6 6 5 5 4 4 4 4 4 3 4 4
4 4 10 7 7 6 12 18 21 27 27 28 29 30 29 28 24 20 15 1 8 9 8 6 6 6 6 4 4 5 4 4 5 6 6 5 5 5 5 4 3 3 2 3
8 10 10 10 13 16 19 23 23 24 26 27 27 29 28 25 21 17 10 4 9 10 9 8 7 6 5 4 5 5 4 5 5 5 6 5 4 4 4 4 3 3 2 3
7 12 14 18 21 16 14 20 24 24 25 25 25 26 24 20 15 10 1 7 9 10 9 8 7 6 5 5 6 4 4 4 4 5 5 5 4 4 3 3 3 3 3 3
9 13 13 12 12 14 20 21 23 23 23 20 21 20 18 15 10 5 7 8 9 9 9 8 6 6 6 6 6 4 3 4 4 4 3 4 4 4 4 3 4 3 2 3
8 9 9 17 14 17 20 22 23 23 19 16 16 16 15 13 12 12 12 11 11 10 9 7 6 6 6 7 6 5 4 4 4 4 3 4 4 5 7 6 8 8 8 8
9 10 12 13 11 14 16 20 22 18 14 13 14 14 14 13 13 13 13 12 11 9 7 7 7 7 8 8 7 6 6 5 4 5 5 5 5 5 6 6 8 9 11 12
9 6 7 7 9 14 16 18 17 14 14 13 12 12 12 12 12 13 12 10 8 8 7 7 7 8 8 8 7 7 6 7 5 3 4 4 4 5 5 6 7 6 9 12
4 1 6 7 9 12 13 14 13 13 13 13 12 11 11 11 10 9 8 7 7 7 8 8 8 8 7 7 7 7 6 5 4 3 4 5 5 6 6 6 7 8 8 8
9 7 5 6 10 11 12 12 12 11 10 10 9 9 8 7 8 8 9 8 8 8 7 7 7 7 8 8 8 7 6 11 11 7 6 6 6 6 6 6 7 7 7 7
6 8 8 10 10 9 9 9 9 9 9 8 8 7 6 6 8 8 8 7 6 6 6 6 8 8 8 8 8 7 6 7 13 9 5 5 5 5 6 6 7 8 7 9
5 5 5 5 6 7 7 7 7 8 7 7 7 7 7 8 7 6 7 7 7 7 7 9 9 6 7 8 6 5 6 6 7 6 6 7 7 6 6 6 8 9 8 10
3 2 2 3 4 5 5 5 6 6 6 6 5 6 6 6 5 5 6 7 7 8 9 11 14 9 8 10 9 5 7 7 7 7 7 10 9 7 7 8 9 9 10 10
2 1 2 3 4 4 4 5 5 5 6 5 5 6 7 7 7 6 6 5 5 7 9 10 9 8 7 9 12 6 7 8 8 7 8 7 8 9 9 10 11 11 11 11
3 2 2 3 3 4 5 5 4 5 5 5 5 5 5 6 6 6 5 6 8 10 10 14 11 8 5 8 10 6 7 7 8 7 8 9 9 10 10 11 12 12 12 12
3 2 3 4 3 3 4 4 4 4 5 5 5 5 6 7 7 6 4 5 9 15 10 9 9 11 13 11 7 7 8 8 8 8 8 9 10 10 11 12 12 12 12 13
3 3 4 4 4 3 3 4 4 4 4 5 5 6 6 6 5 6 7 8 9 14 10 9 14 17 16 9 7 8 8 8 8 8 8 8 9 9 10 12 12 12 12 12
4 5 5 5 5 4 3 3 3 3 3 4 4 5 5 5 5 5 5 11 15 13 8 12 18 18 16 8 8 8 8 8 8 8 8 8 8 9 10 11 11 11 12 14
6 6 5 5 4 3 2 1 2 3 3 3 5 5 5 4 5 6 6 8 13 12 8 12 17 17 11 8 8 8 8 9 9 8 7 9 9 10 10 11 11 11 11 11
5 5 4 3 3 3 2 1 1 2 3 3 3 4 5 5 6 6 6 8 10 12 9 8 9 11 8 8 9 9 9 10 10 10 10 10 10 10 10 11 12 10 9 9
6 5 4 3 2 2 2 1 2 2 3 2 3 4 5 7 7 7 8 7 8 8 8 8 8 8 8 9 9 9 9 9 10 10 10 10 10 10 11 12 10 10 9 8
Wind_Direction
266 282 276 269 269 267 261 253 263 281 288 294 300 300 296 306 312 317 319 327 337 343 348 357 5 15 34 44 49 79 103 125 141 144 81 48 24 20 11 2 352 333 329 349
287 279 301 270 267 270 265 265 273 290 292 285 296 292 296 308 313 311 310 307 310 322 335 349 357 0 12 25 24 32 83 110 112 73 45 26 17 26 14 358 352 10 36 41
291 311 320 280 268 259 287 284 276 285 287 298 309 301 297 302 303 301 301 289 268 252 238 230 243 351 2 3 0 7 26 35 27 17 4 1 22 31 15 6 29 48 40 41
294 343 314 257 274 287 286 285 282 278 281 284 288 290 290 286 285 291 297 288 266 243 229 218 201 171 89 29 14 21 25 21 11 3 355 355 33 36 16 28 51 60 45 40
303 308 284 285 285 346 310 297 287 279 284 289 297 299 297 277 268 287 293 287 270 235 199 174 147 90 77 48 27 19 12 6 2 356 351 3 43 42 37 48 50 59 49 39
146 285 270 266 289 330 307 288 269 275 299 309 313 307 303 307 301 299 294 288 268 162 132 126 108 98 87 59 33 10 354 352 353 352 1 38 52 54 58 59 54 58 53 38
221 233 263 268 307 341 314 282 303 312 313 311 306 300 300 301 299 297 295 298 138 124 119 113 106 104 90 66 27 350 344 356 3 360 16 47 47 48 49 58 60 54 51 33
196 220 259 262 309 284 269 290 306 312 313 311 308 306 304 301 298 296 293 283 126 120 108 86 76 85 80 52 359 344 359 15 16 17 20 36 39 43 42 39 39 24 23 23
208 230 252 278 279 278 291 305 313 316 315 311 309 307 308 305 299 294 291 153 131 123 110 87 68 67 63 21 353 356 19 26 30 32 24 18 28 36 34 27 19 358 360 1
267 267 272 281 287 295 312 321 318 315 312 311 313 318 321 318 310 302 123 118 118 113 103 86 67 51 37 12 4 7 17 20 35 29 20 9 11 24 26 1 338 344 345 329
254 271 284 280 296 327 332 324 320 318 315 317 327 332 335 335 342 30 76 84 87 87 85 75 59 41 23 17 14 9 22 27 33 32 13 4 8 359 352 314 310 325 289 286
249 263 287 301 321 341 332 326 326 322 324 341 351 353 7 23 38 51 59 64 68 70 72 63 48 34 17 14 20 13 20 28 23 15 358 4 2 352 339 328 332 337 330 323
254 286 293 299 326 341 333 330 331 339 2 9 17 26 37 42 45 50 52 54 55 56 53 46 41 31 18 13 19 15 6 13 17 7 355 351 348 332 319 319 322 328 331 328
262 292 303 319 327 335 338 337 345 14 23 24 24 31 40 46 47 47 45 43 43 43 41 38 34 26 13 8 12 9 1 358 357 333 333 327 316 304 299 307 318 320 325 325
286 322 278 294 324 341 345 347 357 11 18 24 29 35 40 45 46 42 37 39 43 43 35 27 22 12 2 359 358 353 347 331 333 321 322 317 310 307 307 309 314 315 314 316
310 313 310 330 342 345 351 356 0 7 14 19 27 33 38 43 43 38 32 33 39 32 17 6 354 348 351 350 344 337 331 335 341 339 331 321 316 315 314 312 310 306 303 303
317 320 329 331 338 344 353 358 359 1 7 13 14 16 24 36 41 35 24 16 14 9 358 352 335 335 342 343 334 329 324 323 330 330 315 309 304 298 298 299 301 302 295 298
241 272 303 320 330 336 348 360 6 6 5 5 12 24 34 38 30 12 359 357 359 352 345 338 328 340 338 329 324 334 334 328 329 327 327 324 318 318 313 305 302 302 302 303
274 298 349 4 358 348 356 1 5 5 8 16 29 33 30 20 6 359 358 4 0 346 328 321 345 358 344 343 1 356 344 341 338 335 332 331 334 325 315 311 309 308 305 304
248 146 76 60 37 22 11 5 15 22 18 17 25 26 19 2 350 350 353 351 335 313 313 331 352 345 339 345 2 359 350 345 340 336 333 329 325 322 321 319 317 314 311 308
234 170 120 96 65 41 33 21 21 25 18 22 32 22 3 347 343 347 353 350 333 338 352 354 348 343 6 11 8 357 350 344 338 333 331 330 328 326 324 323 321 318 314 311
207 174 145 125 110 68 30 20 22 23 21 20 19 12 6 358 350 346 344 330 331 356 7 348 339 12 20 18 360 352 347 342 337 331 329 330 330 329 328 326 323 321 317 313
165 146 132 126 121 104 63 34 23 21 17 9 3 358 350 339 340 352 352 346 346 4 6 343 356 16 17 11 353 347 342 336 328 323 323 324 322 320 320 321 322 321 317 314
132 122 116 115 125 122 87 24 351 340 336 340 345 343 339 341 348 359 355 351 357 9 3 351 1 10 10 359 345 340 335 329 320 315 319 319 317 317 320 323 325 326 326 326
125 125 131 142 145 139 130 306 312 323 347 1 358 354 354 355 359 359 358 358 359 7 1 355 359 359 355 340 339 333 327 323 324 324 321 320 318 320 321 323 327 329 330 331
132 138 144 148 145 149 170 221 317 359 8 11 4 0 4 9 11 8 2 359 359 2 357 346 340 342 337 333 331 328 322 320 322 320 315 315 314 314 316 320 320 319 320 320
123 127 129 125 135 155 153 126 72 27 12 17 13 10 13 14 11 7 3 1 357 351 344 338 334 332 331 330 328 326 323 318 316 314 313 310 308 305 304 305 306 303 300 299
Height
1531 1529 1529 1528 1524 1519 1521 1521 1520 1507 1499 1490 1485 1481 1475 1471 1466 1461 1455 1450 1443 1436 1429 1422 1416 1412 1408 1407 1408 1409 1412 1414 1414 1413 1411 1409 1407 1406 1404 1403 1403 1403 1402 1401
1533 1527 1527 1525 1516 1515 1514 1512 1509 1503 1495 1486 1481 1477 1472 1469 1464 1458 1451 1446 1441 1436 1431 1426 1421 1417 1413 1410 1409 1410 1410 1410 1410 1408 1406 1405 1404 1402 1402 1402 1402 1402 1401 1399
1540 1532 1526 1521 1512 1509 1510 1507 1505 1501 1492 1482 1479 1474 1470 1465 1460 1453 1447 1442 1437 1433 1429 1424 1421 1418 1414 1411 1409 1408 1407 1407 1406 1405 1404 1403 1402 1401 1400 1401 1401 1400 1399 1397
1542 1538 1539 1522 1509 1509 1507 1500 1497 1492 1484 1479 1475 1470 1463 1459 1454 1446 1441 1436 1431 1428 1424 1420 1417 1413 1411 1409 1407 1406 1404 1404 1403 1403 1403 1401 1400 1399 1400 1400 1399 1398 1397 1395
1546 1548 1538 1518 1508 1506 1506 1494 1489 1484 1478 1473 1468 1460 1449 1447 1445 1440 1435 1430 1426 1422 1419 1416 1414 1411 1408 1406 1404 1403 1402 1402 1402 1402 1401 1400 1399 1399 1398 1398 1397 1396 1395 1393
1553 1551 1541 1516 1505 1503 1503 1492 1481 1479 1474 1467 1460 1453 1439 1436 1434 1430 1425 1422 1419 1415 1413 1411 1409 1407 1405 1404 1402 1402 1401 1401 1401 1400 1399 1398 1398 1397 1397 1396 1395 1394 1393 1392
1549 1553 1533 1512 1506 1506 1508 1495 1479 1475 1469 1462 1454 1447 1436 1429 1423 1420 1417 1415 1412 1409 1407 1407 1406 1404 1402 1401 1400 1400 1400 1399 1399 1399 1398 1397 1396 1395 1394 1394 1394 1393 1391 1389
1546 1553 1537 1508 1507 1506 1499 1485 1480 1471 1464 1456 1446 1436 1428 1420 1414 1411 1409 1408 1405 1404 1403 1403 1403 1402 1400 1399 1399 1398 1398 1398 1397 1397 1396 1394 1394 1393 1392 1392 1392 1391 1389 1387
1533 1526 1510 1505 1502 1497 1492 1484 1475 1466 1458 1450 1440 1429 1419 1411 1406 1403 1403 1402 1401 1400 1400 1400 1400 1400 1399 1398 1398 1398 1397 1396 1395 1394 1393 1392 1391 1390 1390 1389 1389 1388 1386 1384
1523 1511 1505 1500 1494 1491 1488 1480 1470 1462 1453 1444 1435 1425 1415 1407 1402 1399 1398 1398 1398 1398 1399 1399 1399 1399 1399 1398 1397 1397 1396 1394 1392 1392 1391 1391 1390 1388 1388 1388 1387 1386 1384 1382
1516 1506 1500 1493 1490 1486 1479 1472 1463 1454 1447 1440 1432 1423 1415 1407 1402 1400 1399 1398 1399 1399 1399 1399 1399 1399 1399 1397 1396 1396 1394 1393 1391 1391 1391 1390 1388 1387 1387 1386 1386 1385 1382 1381
1509 1500 1498 1490 1485 1480 1473 1465 1457 1449 1442 1437 1431 1423 1416 1410 1406 1404 1402 1402 1401 1401 1401 1401 1401 1400 1399 1397 1396 1396 1395 1393 1391 1390 1390 1388 1387 1386 1385 1385 1383 1382 1380 1378
1500 1496 1493 1486 1480 1475 1468 1461 1454 1448 1441 1436 1430 1425 1420 1415 1412 1410 1408 1407 1406 1405 1404 1403 1402 1401 1399 1398 1397 1396 1395 1393 1391 1390 1388 1386 1385 1385 1384 1383 1381 1379 1376 1374
1495 1492 1486 1480 1475 1470 1465 1460 1455 1448 1443 1438 1433 1429 1424 1421 1418 1415 1413 1411 1409 1407 1406 1405 1404 1402 1401 1400 1398 1397 1395 1392 1390 1389 1387 1385 1384 1383 1380 1378 1375 1373 1372 1369
1490 1487 1483 1476 1472 1468 1464 1459 1454 1449 1444 1440 1435 1431 1427 1424 1421 1419 1417 1414 1412 1410 1409 1407 1406 1405 1403 1401 1399 1397 1394 1392 1389 1387 1385 1383 1381 1379 1377 1374 1371 1369 1366 1365
1485 1482 1478 1473 1469 1465 1461 1458 1454 1450 1446 1442 1438 1434 1430 1427 1425 1422 1420 1417 1415 1413 1411 1410 1408 1406 1403 1401 1399 1396 1393 1391 1388 1385 1383 1381 1378 1375 1373 1370 1368 1365 1363 1360
1481 1476 1472 1468 1466 1463 1460 1458 1455 1451 1448 1444 1440 1436 1433 1430 1427 1424 1422 1420 1417 1415 1413 1411 1409 1406 1403 1401 1398 1395 1392 1389 1387 1384 1380 1377 1375 1372 1370 1367 1364 1362 1359 1357
1478 1474 1470 1467 1464 1462 1460 1457 1454 1452 1448 1445 1442 1438 1435 1431 1428 1426 1424 1422 1420 1418 1415 1412 1409 1406 1403 1400 1397 1394 1391 1388 1384 1381 1377 1375 1372 1370 1367 1364 1361 1359 1355 1353
1474 1470 1467 1465 1463 1461 1459 1457 1454 1452 1449 1446 1443 1439 1436 1434 1431 1429 1427 1424 1422 1418 1416 1412 1409 1406 1403 1400 1397 1393 1389 1385 1382 1379 1376 1373 1371 1368 1365 1362 1359 1355 1352 1348
1470 1467 1464 1462 1461 1460 1458 1457 1455 1452 1449 1446 1444 1441 1438 1436 1433 1431 1428 1425 1422 1419 1416 1413 1410 1406 1402 1399 1396 1391 1388 1385 1382 1379 1376 1373 1370 1366 1363 1359 1355 1351 1347 1343
1467 1464 1462 1460 1460 1459 1458 1457 1455 1452 1450 1447 1445 1442 1440 1438 1435 1432 1429 1426 1423 1420 1417 1414 1411 1407 1402 1399 1395 1392 1389 1385 1382 1379 1376 1372 1369 1365 1361 1356 1351 1347 1342 1338
1464 1462 1460 1459 1459 1459 1458 1456 1455 1453 1450 1448 1446 1444 1442 1439 1436 1433 1430 1426 1423 1421 1417 1414 1412 1409 1404 1400 1397 1393 1390 1387 1383 1379 1376 1372 1368 1364 1359 1354 1348 1343 1338 1333
1461 1460 1459 1458 1458 1458 1457 1456 1454 1453 1451 1449 1447 1445 1442 1439 1436 1432 1429 1426 1423 1421 1417 1414 1413 1409 1405 1402 1398 1395 1391 1387 1383 1380 1376 1372 1368 1363 1358 1352 1346 1340 1334 1329
1459 1458 1457 1457 1457 1457 1456 1455 1454 1453 1452 1450 1448 1445 1443 1440 1436 1433 1430 1427 1424 1421 1418 1415 1413 1410 1407 1404 1400 1396 1392 1387 1384 1380 1377 1373 1368 1362 1357 1350 1344 1338 1333 1327
1456 1456 1456 1456 1456 1456 1455 1455 1454 1453 1452 1450 1448 1446 1443 1440 1437 1433 1430 1427 1425 1422 1419 1417 1415 1412 1409 1405 1401 1397 1393 1389 1385 1381 1377 1372 1367 1362 1356 1351 1345 1339 1333 1328
1454 1454 1455 1455 1455 1455 1455 1455 1454 1454 1452 1451 1448 1446 1443 1440 1437 1434 1431 1429 1426 1424 1422 1419 1417 1414 1410 1407 1403 1398 1393 1389 1385 1381 1376 1372 1367 1362 1356 1350 1345 1340 1334 1329
1452 1453 1454 1455 1455 1455 1455 1455 1455 1454 1453 1451 1449 1446 1444 1441 1438 1436 1433 1430 1428 1426 1424 1422 1419 1415 1412 1408 1403 1399 1394 1389 1384 1380 1375 1370 1365 1359 1354 1348 1343 1338 1333 1328